Lexington Weather

Lexington, Massachusetts, USA

34°F
4/16/2021 9:45am 
  • Lexington Conditions: Snow, Mist, Overcast
  • Temperature: 34.0°F / 1.1°CColder 2.7°F than last hour.
  • Dew Point: 32.7°FDecreased 2.7°Fsince last hour.
  • Relative Humidity: 95
  • Wind: Calm, 10-min avg: Calm, gust: None
  • Barometer: 29.49 in Steady
  • Visibility: ½ mile
  • Snow Today: 0.3 in
  •   

Regional Weather Roundup
for Boston / Norton, MA

        
000
ASUS41 KBOX 141905
RWRBOX

REGIONAL WEATHER ROUNDUP
NATIONAL WEATHER SERVICE BOSTON/NORTON MA
300 PM EDT WED APR 14 2021

NOTE:  "FAIR" INDICATES FEW OR NO CLOUDS BELOW 12,000 FEET WITH NO 
SIGNIFICANT WEATHER AND/OR OBSTRUCTIONS TO VISIBILITY.

MAZALL-142000-
EASTERN MASSACHUSETTS
  
CITY           SKY/WX    TMP DP  RH WIND       PRES   REMARKS
BOSTON         MOSUNNY   50  39  66 E13       30.02F                  
BEVERLY        NOT AVBL                                               
LAWRENCE       SUNNY     57  41  55 VRB6      30.00F                  
BEDFORD        MOSUNNY   58  40  51 E10       29.98F                  
BLUE HILL        N/A     56  37  49 E9        29.97F                  
NORWOOD        SUNNY     61  39  44 NE8G17    29.98F                  
MARSHFIELD     SUNNY     48  39  71 E8        30.02F                  
PLYMOUTH       SUNNY     52  37  56 NE9       30.00F                  
TAUNTON          N/A    N/A N/A N/A MISG      29.98F                  
NEW BEDFORD    SUNNY     57  40  52 S10       29.99F                  
$$

MAZALL-142000-
CAPE COD AND THE ISLANDS
  
CITY           SKY/WX    TMP DP  RH WIND       PRES   REMARKS
FALMOUTH       NOT AVBL                                               
HYANNIS        SUNNY     53  37  54 NE9       29.99F                  
CHATHAM        SUNNY     50  35  56 E14       30.02F                  
PROVINCETOWN   SUNNY     48  38  68 NE6       30.03                   
NANTUCKET      SUNNY     54  36  50 NE13      30.01F                  
MARTHAS VNYRD  MOSUNNY   54  41  61 SE8       30.01F                  
$$
 
MAZALL-142000-
CENTRAL AND WESTERN MASSACHUSETTS
  
CITY           SKY/WX    TMP DP  RH WIND       PRES   REMARKS
WORCESTER      SUNNY     62  42  47 CALM      29.95F                  
FITCHBURG      SUNNY     64  41  42 CALM      29.95F                  
ORANGE         SUNNY     70  40  33 MISG      29.92F                  
SPRINGFIELD    PTSUNNY   68  39  33 CALM      29.90F                  
WESTFIELD      CLOUDY    70  41  34 S5        29.91F                  
NORTH ADAMS    MOSUNNY   67  36  31 NW5       29.91F                  
PITTSFIELD     PTSUNNY   66  36  32 W8        29.91F                  
$$
 
RIZALL-142000-
RHODE ISLAND
  
CITY           SKY/WX    TMP DP  RH WIND       PRES   REMARKS
PROVIDENCE     MOSUNNY   57  41  55 SE14      30.00F                  
NEWPORT        SUNNY     52  38  58 S12       30.01F                  
BLOCK ISLAND   SUNNY     49  42  77 SE12      30.02F                  
SMITHFIELD     SUNNY     61  44  53 SE9       29.98F                  
WESTERLY       SUNNY     50  41  71 S13       30.01F                  
$$
 
CTZALL-142000-
CONNECTICUT
  
CITY           SKY/WX    TMP DP  RH WIND       PRES   REMARKS
BRADLEY INTL   PTSUNNY   69  39  33 VRB3      29.91F                  
HARTFORD       MOSUNNY   70  40  33 VRB3      29.91F                  
BRIDGEPORT     PTSUNNY   54  45  71 E13       29.96F                  
DANBURY        PTSUNNY   71  38  29 SW7       29.94F                  
GROTON         SUNNY     53  45  74 SE10      29.99F                  
NEW HAVEN      MOSUNNY   59  46  62 SE15      29.96F                  
CHESTER        FAIR      59  43  55 VRB7G13   29.97F                  
MERIDEN        CLOUDY    64  42  44 S12       29.94F                  
WILLIMANTIC    SUNNY     67  43  41 SW8       29.93F                  
OXFORD         CLOUDY    66  43  43 SE15G22   29.94F                  
$$

MEZ002-015-021-024-NHZ003-005-008-011-012-014-VTZ005-008-142000-
NORTHERN NEW ENGLAND
  
CITY           SKY/WX    TMP DP  RH WIND       PRES   REMARKS
PORTLAND ME    MOSUNNY   54  40  59 S10       29.99F                  
BANGOR ME      SUNNY     59  26  28 N8        29.97F                  
CONCORD NH     SUNNY     65  39  38 VRB3      29.94F                  
MANCHESTER NH  MOSUNNY   64  40  41 VRB3      29.94F                  
NASHUA NH      MOSUNNY   64  41  42 E7        29.96F                  
PORTSMOUTH NH  MOSUNNY   53  38  56 SE9       30.01F                  
JAFFREY NH     PTSUNNY   66  40  38 SW9       29.93F                  
KEENE NH       MOSUNNY   69  40  34 W7        29.91F                  
BURLINGTON VT  MOSUNNY   70  36  28 NW8       29.90F                  
MT. WASHINGTON PTSUNNY   41  19  42 W22G29      N/A  WCI  31          
$$

NYZ052-076-142000-
EASTERN NEW YORK
  
CITY           SKY/WX    TMP DP  RH WIND       PRES   REMARKS
ALBANY         PTSUNNY   68  39  34 CALM      29.91F                  
NEW YORK CITY  CLOUDY    71  36  27 SW13      29.94F                  
$$
 
ANZALL-142000-
MARINE OBSERVATIONS
  
STATION/POSITION TIME  TEMP    WIND        PRES    VSBY  WAVE
                       AIR SEA DIR/SP/G                  HT/PER
                 (UTC) (F)     (DEG/KT/KT) (MB)    (MI)  (FT/S)
BOSTON BUOY      1850   44 45   90/  8/ 10 1016.9F         5/ 8
BUZZARDS BAY     1800          170/  7/  8 1017.9F
NANTUCKET SOUND  1850      48                N/A           2/ 8
MASS BAY-STELLWA NOT AVBL
ISLE OF SHOALS   1800   43     120/  9/  9 1016.6F
S OF BLOCK IS    1826      46                N/A           3/ 9
$$

......................KEY.........................
  SKY/WX - SKY CONDITION/PRESENT WEATHER
  TMP    - TEMPERATURE IN FAHRENHEIT
  DWPT   - DEWPOINT IN FAHRENHEIT
  RH     - RELATIVE HUMIDITY IN PERCENT
  WIND   - DIRECTION AND SPEED IN MPH
  PRES   - MEAN SEA LEVEL PRESSURE IN INCHES OF HG
  WCI    - WIND CHILL INDEX
  VSB    - VISIBILITY IN MILES
  HX     - HEAT INDEX
  TC     - TEMPERATURE IN CELSIUS
  VRB    - VARIABLE WIND DIRECTION
  N/A    - NOT AVAILABLE
  
      

Other recent Regional Weather Roundups

Fri Apr 16, 9:04am

Fri Apr 16, 8:04am

Fri Apr 16, 7:04am

Fri Apr 16, 6:04am

Fri Apr 16, 5:04am

Fri Apr 16, 4:04am

Fri Apr 16, 3:04am

Fri Apr 16, 2:04am

Fri Apr 16, 1:04am

Fri Apr 16, 12:04am

Thu Apr 15, 11:05pm

Thu Apr 15, 10:04pm

Thu Apr 15, 9:04pm

Thu Apr 15, 8:04pm

Thu Apr 15, 7:05pm

Thu Apr 15, 6:04pm

Thu Apr 15, 5:05pm

Thu Apr 15, 4:04pm

Thu Apr 15, 3:05pm

Thu Apr 15, 2:04pm

Thu Apr 15, 1:05pm

Thu Apr 15, 12:04pm

Thu Apr 15, 11:04am

Thu Apr 15, 10:05am

Thu Apr 15, 9:04am

Thu Apr 15, 8:04am

Thu Apr 15, 7:04am

Thu Apr 15, 6:04am

Thu Apr 15, 5:04am

Thu Apr 15, 4:04am

Thu Apr 15, 3:04am

Thu Apr 15, 2:04am

Thu Apr 15, 1:04am

Thu Apr 15, 12:04am

Wed Apr 14, 11:04pm

Wed Apr 14, 10:04pm

Wed Apr 14, 9:04pm

Wed Apr 14, 8:04pm

Wed Apr 14, 7:04pm

Wed Apr 14, 6:04pm

Wed Apr 14, 5:05pm

Wed Apr 14, 4:04pm

Wed Apr 14, 2:04pm

Wed Apr 14, 1:05pm

Wed Apr 14, 12:04pm

Wed Apr 14, 11:04am

Wed Apr 14, 10:04am

Wed Apr 14, 9:04am

Wed Apr 14, 8:04am

Wed Apr 14, 7:04am

Wed Apr 14, 6:04am

Wed Apr 14, 5:04am

Wed Apr 14, 4:04am

Wed Apr 14, 3:04am

Wed Apr 14, 2:04am

Wed Apr 14, 1:04am

Wed Apr 14, 12:04am

Tue Apr 13, 11:04pm

Tue Apr 13, 10:05pm

Tue Apr 13, 9:05pm

Tue Apr 13, 8:05pm

Tue Apr 13, 7:04pm

Tue Apr 13, 6:04pm

Tue Apr 13, 5:05pm

Tue Apr 13, 4:04pm

Tue Apr 13, 3:04pm

Tue Apr 13, 2:05pm

Tue Apr 13, 1:04pm

Tue Apr 13, 12:05pm

Tue Apr 13, 11:05am

Tue Apr 13, 10:04am

Tue Apr 13, 9:04am

Tue Apr 13, 8:04am

Tue Apr 13, 7:04am

Tue Apr 13, 6:04am

Tue Apr 13, 5:04am

Tue Apr 13, 4:04am

Tue Apr 13, 3:04am

Tue Apr 13, 2:04am

Tue Apr 13, 1:04am

Tue Apr 13, 12:05am

Mon Apr 12, 11:04pm

Mon Apr 12, 10:04pm

Mon Apr 12, 9:04pm

Mon Apr 12, 8:04pm

Mon Apr 12, 7:05pm

Mon Apr 12, 6:04pm

Mon Apr 12, 5:04pm

Mon Apr 12, 4:04pm

Mon Apr 12, 3:05pm

Mon Apr 12, 2:04pm

Mon Apr 12, 1:05pm

Mon Apr 12, 12:04pm

Mon Apr 12, 11:04am

Mon Apr 12, 10:04am

Mon Apr 12, 9:04am

Mon Apr 12, 8:04am

Mon Apr 12, 7:04am

Mon Apr 12, 6:04am

Mon Apr 12, 5:04am

Mon Apr 12, 4:04am

Mon Apr 12, 3:04am

Mon Apr 12, 2:04am

Mon Apr 12, 1:05am

Mon Apr 12, 12:04am

Sun Apr 11, 11:04pm

Sun Apr 11, 10:04pm

Sun Apr 11, 9:04pm

Sun Apr 11, 8:04pm

Sun Apr 11, 7:04pm

Sun Apr 11, 6:05pm

Sun Apr 11, 5:05pm

Sun Apr 11, 4:04pm

Sun Apr 11, 3:05pm

Sun Apr 11, 2:05pm

Sun Apr 11, 1:05pm

Sun Apr 11, 12:04pm

Sun Apr 11, 11:05am

Sun Apr 11, 10:05am

Sun Apr 11, 9:04am

Sun Apr 11, 8:04am

Sun Apr 11, 7:04am

Sun Apr 11, 6:04am

Sun Apr 11, 5:04am

Sun Apr 11, 4:04am

Sun Apr 11, 3:04am

Sun Apr 11, 2:04am

Sun Apr 11, 1:05am

Sun Apr 11, 12:04am

Sat Apr 10, 11:05pm

Sat Apr 10, 10:04pm

Sat Apr 10, 9:04pm

Sat Apr 10, 8:04pm

Sat Apr 10, 7:05pm

Sat Apr 10, 6:04pm

Sat Apr 10, 5:04pm

Sat Apr 10, 4:04pm

Sat Apr 10, 3:04pm

Sat Apr 10, 2:05pm

Sat Apr 10, 1:04pm

Sat Apr 10, 12:04pm

Sat Apr 10, 11:04am

Sat Apr 10, 10:04am

Sat Apr 10, 9:04am

Sat Apr 10, 8:04am

Sat Apr 10, 7:04am

Sat Apr 10, 6:04am

Sat Apr 10, 5:04am

Sat Apr 10, 4:04am

Sat Apr 10, 3:04am

Sat Apr 10, 2:04am

Sat Apr 10, 1:05am

Sat Apr 10, 12:04am

Fri Apr 9, 11:04pm

Fri Apr 9, 10:05pm

Fri Apr 9, 9:04pm

Fri Apr 9, 8:05pm

Fri Apr 9, 7:05pm

Fri Apr 9, 6:04pm

Fri Apr 9, 5:04pm

Fri Apr 9, 4:05pm

Fri Apr 9, 3:05pm

Fri Apr 9, 2:04pm

Fri Apr 9, 1:04pm

Fri Apr 9, 12:04pm

Fri Apr 9, 11:05am

Fri Apr 9, 10:04am

Meta data:

ID: 05aa487f-a6e8-40bd-8427-170e36f20a9c
Link: https://api.weather.gov/products/05aa487f-a6e8-40bd-8427-170e36f20a9c